Location: Seattle
(47.6064°N, 122.3308°W)
Time: 01:21:52
(UTC-08:00)

CZ-6A DEB - Pass Details

Date: 13 December 2023
Orbit: 679 x 823 km, 98.7° (Epoch: 23 February)

Event Time Altitude Azimuth Distance (km) Brightness Sun altitude
Rises 19:36:37 0° 216° (SW) 3,370 ? -32.4°
Reaches altitude 10° 19:40:09 10° 240° (WSW) 2,448 ? -33.0°
Maximum altitude 19:43:03 15° 273° (W) 2,146 ? -33.4°
Drops below altitude 10° 19:45:58 10° 305° (NW) 2,451 ? -33.9°
Sets 19:49:31 0° 329° (NNW) 3,377 ? -34.5°
